When you browse on this site, cookies collect data to enhance your experience and personalize the content and advertising you see.
Visit our Privacy Policy to learn more. By continuing to use the site, you agree to this use of cookies and data.
  • In Czech Republic
  • List of Countries
  • For 7 days
  • Water Temperature
  • Satellite Maps
  • Weather Map
  • Weather Widgets
  • user-avatar
    Login

    Hourly Weather Yeghegnadzor

    Today, 23 March, Saturday

    Time Temperature Precipitation Wind Pressure Humidity
    00:00 +2°C° 0 mm 1 mps 652 mmHg 59%
    01:00 +1°C° 0 mm 1 mps 651 mmHg 59%
    02:00 +1°C° 0 mm 1 mps 651 mmHg 60%
    03:00 0°C° 0 mm 1 mps 651 mmHg 61%
    04:00 -3°C° 0 mm 2 mps 650 mmHg 61%
    05:00 -3°C° 0 mm 2 mps 650 mmHg 62%
    06:00 -3°C° 0 mm 2 mps 650 mmHg 62%
    07:00 -1°C° 0 mm 2 mps 650 mmHg 62%
    08:00 +2°C° 0 mm 2 mps 650 mmHg 63%
    09:00 +3°C° 0 mm 2 mps 651 mmHg 64%
    10:00 +4°C° 0 mm 2 mps 650 mmHg 67%
    11:00 +5°C° 0 mm 2 mps 650 mmHg 69%
    12:00 +5°C° 0 mm 3 mps 649 mmHg 71%
    13:00 +5°C° 0 mm 3 mps 649 mmHg 70%
    14:00 +5°C° 0 mm 3 mps 648 mmHg 68%
    15:00 +7°C° 0 mm 3 mps 648 mmHg 66%
    16:00 +5°C° 0.1 mm 3 mps 648 mmHg 67%
    17:00 +5°C° 0.1 mm 2 mps 647 mmHg 67%
    18:00 +5°C° 0.1 mm 2 mps 647 mmHg 68%
    19:00 +4°C° 0 mm 2 mps 647 mmHg 68%
    20:00 +2°C° 0 mm 3 mps 647 mmHg 68%
    21:00 +1°C° 0 mm 3 mps 647 mmHg 68%
    22:00 +1°C° 0 mm 3 mps 647 mmHg 68%
    23:00 +1°C° 0 mm 3 mps 647 mmHg 68%

    Tomorrow, 24 March, Sunday

    Time Temperature Precipitation Wind Pressure Humidity
    00:00 +1°C° 0 mm 3 mps 647 mmHg 68%
    01:00 +1°C° 0.1 mm 3 mps 646 mmHg 69%
    02:00 +1°C° 0.1 mm 3 mps 646 mmHg 70%
    03:00 +1°C° 0.1 mm 3 mps 646 mmHg 70%
    04:00 +1°C° 0.1 mm 3 mps 646 mmHg 71%
    05:00 +1°C° 0.1 mm 3 mps 646 mmHg 71%
    06:00 +1°C° 0.1 mm 3 mps 646 mmHg 72%
    07:00 +2°C° 0 mm 3 mps 646 mmHg 71%
    08:00 +4°C° 0 mm 3 mps 646 mmHg 70%
    09:00 +5°C° 0 mm 3 mps 646 mmHg 68%
    10:00 +7°C° 0 mm 3 mps 646 mmHg 66%
    11:00 +8°C° 0 mm 3 mps 646 mmHg 63%
    12:00 +8°C° 0 mm 4 mps 646 mmHg 61%
    13:00 +9°C° 0 mm 3 mps 646 mmHg 59%
    14:00 +10°C° 0 mm 3 mps 645 mmHg 57%
    15:00 +10°C° 0 mm 3 mps 645 mmHg 55%
    16:00 +9°C° 0.4 mm 2 mps 645 mmHg 59%
    17:00 +9°C° 0.4 mm 2 mps 646 mmHg 63%
    18:00 +8°C° 0.4 mm 2 mps 646 mmHg 67%
    19:00 +7°C° 0.6 mm 2 mps 646 mmHg 71%
    20:00 +6°C° 0.6 mm 2 mps 646 mmHg 74%
    21:00 +5°C° 0.6 mm 2 mps 646 mmHg 78%
    22:00 +5°C° 0.1 mm 2 mps 646 mmHg 77%
    23:00 +5°C° 0.1 mm 2 mps 646 mmHg 75%

    Day after tomorrow, 25 March, Monday

    Time Temperature Precipitation Wind Pressure Humidity
    00:00 +4°C° 0.1 mm 2 mps 646 mmHg 74%
    01:00 +4°C° 0 mm 2 mps 646 mmHg 73%
    02:00 +3°C° 0 mm 2 mps 646 mmHg 73%
    03:00 +3°C° 0 mm 2 mps 646 mmHg 72%
    04:00 +2°C° 0 mm 3 mps 646 mmHg 72%
    05:00 +2°C° 0 mm 3 mps 646 mmHg 72%
    06:00 +2°C° 0 mm 3 mps 646 mmHg 72%
    07:00 +3°C° 0 mm 3 mps 646 mmHg 71%
    08:00 +4°C° 0 mm 3 mps 646 mmHg 70%
    09:00 +7°C° 0 mm 3 mps 646 mmHg 68%
    10:00 +7°C° 0.1 mm 2 mps 646 mmHg 67%
    11:00 +8°C° 0.1 mm 2 mps 646 mmHg 65%
    12:00 +10°C° 0.1 mm 1 mps 646 mmHg 64%
    13:00 +9°C° 0.3 mm 2 mps 646 mmHg 65%
    14:00 +8°C° 0.3 mm 2 mps 646 mmHg 67%
    15:00 +8°C° 0.3 mm 2 mps 646 mmHg 68%
    16:00 +7°C° 0.4 mm 2 mps 646 mmHg 71%
    17:00 +7°C° 0.4 mm 1 mps 646 mmHg 73%
    18:00 +7°C° 0.4 mm 1 mps 646 mmHg 76%
    19:00 +6°C° 0.4 mm 1 mps 647 mmHg 77%
    20:00 +6°C° 0.4 mm 1 mps 648 mmHg 79%
    21:00 +5°C° 0.4 mm 1 mps 648 mmHg 80%
    22:00 +5°C° 0.3 mm 1 mps 648 mmHg 80%
    23:00 +5°C° 0.3 mm 1 mps 648 mmHg 80%

    26 March, Tuesday

    Time Temperature Precipitation Wind Pressure Humidity
    00:00 +5°C° 0.3 mm 1 mps 648 mmHg 80%
    01:00 +5°C° 0.3 mm 1 mps 648 mmHg 81%
    02:00 +5°C° 0.3 mm 1 mps 649 mmHg 82%
    03:00 +5°C° 0.3 mm 1 mps 649 mmHg 83%
    04:00 +4°C° 0.3 mm 0 mps 649 mmHg 84%
    05:00 +4°C° 0.3 mm 0 mps 649 mmHg 84%
    06:00 +4°C° 0.3 mm 0 mps 649 mmHg 85%
    07:00 +4°C° 0.3 mm 0 mps 650 mmHg 83%
    08:00 +6°C° 0.3 mm 1 mps 650 mmHg 81%
    09:00 +7°C° 0.3 mm 1 mps 650 mmHg 79%
    10:00 +8°C° 0.1 mm 1 mps 650 mmHg 76%
    11:00 +8°C° 0.1 mm 1 mps 650 mmHg 73%
    12:00 +9°C° 0.1 mm 1 mps 649 mmHg 70%
    13:00 +10°C° 0.1 mm 1 mps 649 mmHg 70%
    14:00 +10°C° 0.1 mm 1 mps 649 mmHg 69%
    15:00 +10°C° 0.1 mm 1 mps 649 mmHg 68%
    16:00 +10°C° 0.1 mm 1 mps 649 mmHg 69%
    17:00 +9°C° 0.1 mm 1 mps 649 mmHg 71%
    18:00 +8°C° 0.1 mm 1 mps 648 mmHg 72%
    19:00 +8°C° 0 mm 1 mps 649 mmHg 73%
    20:00 +7°C° 0 mm 1 mps 649 mmHg 75%
    21:00 +7°C° 0 mm 1 mps 649 mmHg 76%
    22:00 +6°C° 0 mm 1 mps 649 mmHg 77%
    23:00 +6°C° 0 mm 1 mps 649 mmHg 77%

    27 March, Wednesday

    Time Temperature Precipitation Wind Pressure Humidity
    00:00 +4°C° 0 mm 0 mps 648 mmHg 78%
    01:00 +4°C° 0 mm 0 mps 648 mmHg 79%
    02:00 +4°C° 0 mm 0 mps 648 mmHg 81%
    03:00 +4°C° 0 mm 0 mps 648 mmHg 82%
    04:00 +4°C° 0 mm 1 mps 648 mmHg 83%
    05:00 +4°C° 0 mm 1 mps 648 mmHg 84%
    06:00 +4°C° 0 mm 1 mps 648 mmHg 84%
    07:00 +5°C° 0.1 mm 1 mps 648 mmHg 81%
    08:00 +6°C° 0.1 mm 1 mps 648 mmHg 78%
    09:00 +6°C° 0.1 mm 2 mps 648 mmHg 75%
    10:00 +7°C° 0.1 mm 2 mps 648 mmHg 73%
    11:00 +7°C° 0.1 mm 2 mps 648 mmHg 71%
    12:00 +8°C° 0.1 mm 2 mps 648 mmHg 68%
    13:00 +8°C° 0.1 mm 2 mps 648 mmHg 66%
    14:00 +9°C° 0.1 mm 2 mps 648 mmHg 64%
    15:00 +9°C° 0.1 mm 2 mps 648 mmHg 62%
    16:00 +9°C° 0 mm 2 mps 648 mmHg 63%
    17:00 +9°C° 0 mm 1 mps 648 mmHg 65%
    18:00 +8°C° 0 mm 1 mps 648 mmHg 66%
    19:00 +8°C° 0 mm 1 mps 649 mmHg 68%
    20:00 +7°C° 0 mm 1 mps 649 mmHg 70%
    21:00 +6°C° 0 mm 1 mps 649 mmHg 72%
    22:00 +6°C° 0.1 mm 1 mps 649 mmHg 73%
    23:00 +6°C° 0.1 mm 1 mps 649 mmHg 74%

    28 March, Thursday

    Time Temperature Precipitation Wind Pressure Humidity
    00:00 +6°C° 0.1 mm 1 mps 649 mmHg 75%
    01:00 +5°C° 0 mm 1 mps 649 mmHg 75%
    02:00 +5°C° 0 mm 1 mps 649 mmHg 76%
    03:00 +5°C° 0 mm 1 mps 649 mmHg 77%
    04:00 +5°C° 0.1 mm 1 mps 649 mmHg 77%
    05:00 +5°C° 0.1 mm 1 mps 650 mmHg 76%
    06:00 +5°C° 0.1 mm 1 mps 650 mmHg 76%
    07:00 +6°C° 0.3 mm 1 mps 650 mmHg 75%
    08:00 +6°C° 0.3 mm 1 mps 651 mmHg 74%
    09:00 +7°C° 0.3 mm 1 mps 651 mmHg 72%
    10:00 +7°C° 0.6 mm 1 mps 651 mmHg 74%
    11:00 +7°C° 0.6 mm 1 mps 651 mmHg 76%
    12:00 +7°C° 0.6 mm 1 mps 651 mmHg 77%
    13:00 +7°C° 0.6 mm 1 mps 650 mmHg 77%
    14:00 +7°C° 0.6 mm 1 mps 650 mmHg 77%
    15:00 +8°C° 0.6 mm 1 mps 650 mmHg 77%
    16:00 +7°C° 0.3 mm 1 mps 650 mmHg 78%
    17:00 +7°C° 0.3 mm 1 mps 650 mmHg 79%
    18:00 +7°C° 0.3 mm 1 mps 651 mmHg 81%
    19:00 +6°C° 0.2 mm 1 mps 651 mmHg 83%
    20:00 +5°C° 0.2 mm 0 mps 651 mmHg 84%
    21:00 +4°C° 0.2 mm 0 mps 651 mmHg 86%
    22:00 +4°C° 0.1 mm 0 mps 651 mmHg 86%
    23:00 +3°C° 0.1 mm 0 mps 651 mmHg 86%
    Show more